| time (UTC) | temp C | wind direction | speed KPH | gust KPH | rain 1hr cm | rain 24hr cm | rain mn cm | humidity % | barometer mb |
| 20260503051509 | 0 | 58 | 0.0 | 3.2 | 0.00 | 0.00 | 0.00 | 89 | 1013.1 |
| 20260503050040 | 0 | 0 | 0.0 | 1.6 | 0.00 | 0.00 | 0.00 | 89 | 1012.7 |
| 20260503050009 | 0 | 58 | 0.0 | 1.6 | 0.00 | 0.00 | 0.00 | 89 | 1013.2 |
| 20260503044545 | 0 | 269 | 0.0 | 3.2 | 0.00 | 0.03 | 0.00 | 90 | 1012.8 |
| 20260503044514 | 0 | 269 | 0.0 | 1.6 | 0.00 | 0.00 | 0.00 | 90 | 1013.2 |
| 20260503043051 | 0 | 269 | 0.0 | 3.2 | 0.00 | 0.03 | 0.00 | 89 | 1012.8 |
| 20260503043012 | 0 | 269 | 0.0 | 3.2 | 0.00 | 0.00 | 0.00 | 89 | 1013.2 |
| 20260503041549 | 0 | 0 | 0.0 | 3.2 | 0.00 | 0.03 | 0.00 | 89 | 1012.9 |
| 20260503041528 | 0 | 269 | 0.0 | 3.2 | 0.00 | 0.03 | 0.00 | 89 | 1013.3 |
| 20260503040054 | 0 | 0 | 0.0 | 3.2 | 0.00 | 0.03 | 0.00 | 86 | 1012.9 |
| 20260503040026 | 0 | 269 | 0.0 | 3.2 | 0.00 | 0.03 | 0.00 | 86 | 1013.4 |
| 20260503034548 | 0 | 0 | 0.0 | 3.2 | 0.00 | 0.10 | 0.03 | 86 | 1013.0 |
| 20260503034528 | 0 | 269 | 0.0 | 3.2 | 0.00 | 0.05 | 0.03 | 86 | 1013.4 |
| 20260503033049 | 0 | 269 | 0.0 | 3.2 | 0.00 | 0.10 | 0.03 | 85 | 1013.0 |
| 20260503033025 | 0 | 269 | 0.0 | 3.2 | 0.00 | 0.05 | 0.03 | 85 | 1013.4 |
| 20260503031549 | 0 | 0 | 0.0 | 3.2 | 0.00 | 0.10 | 0.03 | 85 | 1013.0 |
| 20260503031526 | 0 | 269 | 0.0 | 1.6 | 0.00 | 0.05 | 0.03 | 85 | 1013.5 |
| 20260503030057 | 0 | 0 | 0.0 | 3.2 | 0.00 | 0.10 | 0.03 | 85 | 1013.0 |
| 20260503030029 | 0 | 269 | 0.0 | 3.2 | 0.00 | 0.10 | 0.03 | 85 | 1013.5 |
| 20260503024542 | 0 | 0 | 0.0 | 1.6 | 0.00 | 0.23 | 0.03 | 83 | 1013.0 |
| 20260503024526 | 0 | 268 | 0.0 | 1.6 | 0.00 | 0.18 | 0.03 | 83 | 1013.5 |
| 20260503023059 | 1 | 268 | 0.0 | 3.2 | 0.00 | 0.23 | 0.03 | 82 | 1013.0 |
| 20260503023027 | 1 | 268 | 0.0 | 3.2 | 0.00 | 0.18 | 0.03 | 82 | 1013.5 |
| 20260503021554 | 1 | 0 | 0.0 | 0.0 | 0.00 | 0.23 | 0.03 | 80 | 1013.0 |
| 20260503021526 | 1 | 267 | 0.0 | 0.0 | 0.00 | 0.20 | 0.03 | 80 | 1013.6 |
| 20260503020049 | 2 | 267 | 0.0 | 1.6 | 0.00 | 0.23 | 0.03 | 77 | 1013.0 |
| 20260503020027 | 2 | 267 | 0.0 | 1.6 | 0.00 | 0.23 | 0.03 | 77 | 1013.5 |
| 20260503014548 | 2 | 0 | 0.0 | 0.0 | 0.00 | 0.28 | 0.03 | 76 | 1013.0 |
| 20260503014528 | 2 | 267 | 0.0 | 0.0 | 0.00 | 0.28 | 0.03 | 76 | 1013.5 |
| 20260503013041 | 3 | 0 | 0.0 | 0.0 | 0.00 | 0.28 | 0.03 | 72 | 1013.0 |
| 20260503013035 | 3 | 267 | 0.0 | 0.0 | 0.00 | 0.28 | 0.03 | 72 | 1013.4 |
| 20260503011546 | 4 | 0 | 0.0 | 3.2 | 0.00 | 0.28 | 0.03 | 68 | 1013.0 |
| 20260503011530 | 4 | 267 | 0.0 | 3.2 | 0.00 | 0.28 | 0.03 | 68 | 1013.6 |
| 20260503010053 | 5 | 0 | 0.0 | 3.2 | 0.00 | 0.28 | 0.03 | 64 | 1012.8 |
| 20260503010008 | 5 | 267 | 0.0 | 3.2 | 0.00 | 0.28 | 0.03 | 64 | 1013.4 |
| 20260503004558 | 6 | 0 | 0.0 | 3.2 | 0.00 | 0.28 | 0.03 | 60 | 1012.7 |
| 20260503004509 | 6 | 267 | 0.0 | 3.2 | 0.00 | 0.28 | 0.03 | 60 | 1013.3 |
| 20260503003100 | 6 | 11 | 1.6 | 8.0 | 0.00 | 0.28 | 0.03 | 58 | 1012.6 |
| 20260503003006 | 6 | 13 | 1.6 | 8.0 | 0.00 | 0.28 | 0.03 | 58 | 1013.1 |
| 20260503001612 | 6 | 51 | 0.0 | 8.0 | 0.00 | 0.28 | 0.03 | 57 | 1012.3 |
| 20260503001507 | 6 | 360 | 0.0 | 8.0 | 0.00 | 0.28 | 0.03 | 57 | 1012.8 |
| 20260503000056 | 7 | 315 | 0.0 | 3.2 | 0.00 | 0.28 | 0.03 | 55 | 1012.3 |
| 20260503000006 | 7 | 315 | 0.0 | 3.2 | 0.00 | 0.28 | 0.03 | 55 | 1012.7 |
| 20260502234543 | 7 | 315 | 0.0 | 3.2 | 0.00 | 0.28 | 0.03 | 52 | 1012.1 |
| 20260502234508 | 7 | 314 | 0.0 | 3.2 | 0.00 | 0.28 | 0.03 | 52 | 1012.6 |
| 20260502233044 | 7 | 9 | 4.8 | 8.0 | 0.00 | 0.28 | 0.03 | 49 | 1012.2 |
| 20260502233007 | 7 | 39 | 4.8 | 8.0 | 0.00 | 0.28 | 0.03 | 49 | 1012.6 |
| 20260502231541 | 8 | 254 | 1.6 | 12.9 | 0.00 | 0.28 | 0.03 | 49 | 1012.0 |
| 20260502231516 | 8 | 277 | 1.6 | 12.9 | 0.00 | 0.28 | 0.03 | 49 | 1012.3 |
| 20260502230039 | 8 | 25 | 4.8 | 14.5 | 0.00 | 0.28 | 0.03 | 48 | 1012.0 |
| 20260502230008 | 8 | 315 | 4.8 | 12.9 | 0.00 | 0.28 | 0.03 | 48 | 1012.6 |
| 20260502224549 | 8 | 281 | 3.2 | 9.7 | 0.00 | 0.28 | 0.03 | 51 | 1011.9 |
| 20260502224506 | 8 | 30 | 4.8 | 9.7 | 0.00 | 0.28 | 0.03 | 51 | 1012.1 |
| 20260502223044 | 8 | 347 | 3.2 | 12.9 | 0.00 | 0.28 | 0.03 | 51 | 1011.7 |
| 20260502223008 | 8 | 5 | 3.2 | 12.9 | 0.00 | 0.28 | 0.03 | 51 | 1011.9 |
| 20260502221539 | 8 | 274 | 3.2 | 9.7 | 0.00 | 0.28 | 0.03 | 49 | 1011.6 |
| 20260502221507 | 8 | 350 | 3.2 | 9.7 | 0.00 | 0.28 | 0.03 | 49 | 1011.9 |
| 20260502220041 | 8 | 255 | 3.2 | 12.9 | 0.00 | 0.28 | 0.03 | 47 | 1011.4 |
| 20260502220009 | 8 | 255 | 3.2 | 12.9 | 0.00 | 0.28 | 0.03 | 47 | 1011.9 |
| 20260502214540 | 9 | 34 | 8.0 | 16.1 | 0.00 | 0.28 | 0.03 | 47 | 1011.4 |
| 20260502214507 | 9 | 18 | 8.0 | 16.1 | 0.00 | 0.28 | 0.03 | 47 | 1011.9 |
| 20260502213055 | 9 | 24 | 6.4 | 16.1 | 0.00 | 0.28 | 0.03 | 47 | 1011.4 |
| 20260502213009 | 9 | 5 | 6.4 | 16.1 | 0.00 | 0.28 | 0.03 | 47 | 1011.8 |
| 20260502211544 | 10 | 360 | 3.2 | 9.7 | 0.00 | 0.28 | 0.03 | 46 | 1011.2 |
| 20260502211509 | 10 | 46 | 3.2 | 9.7 | 0.00 | 0.28 | 0.03 | 46 | 1011.7 |
| 20260502210043 | 10 | 286 | 4.8 | 14.5 | 0.00 | 0.28 | 0.03 | 46 | 1011.2 |
| 20260502210010 | 10 | 9 | 4.8 | 14.5 | 0.00 | 0.28 | 0.03 | 46 | 1011.7 |
| 20260502204545 | 10 | 232 | 4.8 | 14.5 | 0.00 | 0.28 | 0.03 | 46 | 1011.2 |
| 20260502204527 | 10 | 229 | 6.4 | 14.5 | 0.00 | 0.28 | 0.03 | 46 | 1011.7 |
| 20260502203042 | 10 | 347 | 3.2 | 17.7 | 0.00 | 0.28 | 0.03 | 45 | 1011.2 |
| 20260502203027 | 10 | 248 | 4.8 | 17.7 | 0.00 | 0.28 | 0.03 | 45 | 1011.8 |
| 20260502201547 | 10 | 29 | 6.4 | 16.1 | 0.00 | 0.28 | 0.03 | 45 | 1011.3 |
| 20260502201531 | 10 | 343 | 6.4 | 16.1 | 0.00 | 0.28 | 0.03 | 45 | 1011.8 |
| 20260502200107 | 10 | 338 | 3.2 | 17.7 | 0.00 | 0.28 | 0.03 | 47 | 1011.4 |
| 20260502200026 | 10 | 348 | 1.6 | 17.7 | 0.00 | 0.28 | 0.03 | 47 | 1011.9 |
| 20260502194602 | 10 | 284 | 6.4 | 17.7 | 0.00 | 0.28 | 0.03 | 44 | 1011.6 |
| 20260502194528 | 10 | 307 | 6.4 | 17.7 | 0.00 | 0.28 | 0.03 | 44 | 1012.2 |
| 20260502193043 | 11 | 204 | 4.8 | 16.1 | 0.00 | 0.28 | 0.03 | 43 | 1011.8 |
| 20260502193027 | 11 | 158 | 4.8 | 16.1 | 0.00 | 0.28 | 0.03 | 43 | 1012.3 |
| 20260502191541 | 11 | 46 | 4.8 | 14.5 | 0.00 | 0.28 | 0.03 | 42 | 1011.8 |
| 20260502191528 | 11 | 300 | 3.2 | 14.5 | 0.00 | 0.28 | 0.03 | 42 | 1012.4 |
| 20260502190040 | 11 | 218 | 6.4 | 16.1 | 0.00 | 0.28 | 0.03 | 44 | 1012.0 |
| 20260502190012 | 11 | 270 | 6.4 | 16.1 | 0.00 | 0.28 | 0.03 | 44 | 1012.6 |
| 20260502184538 | 10 | 320 | 3.2 | 14.5 | 0.00 | 0.28 | 0.03 | 45 | 1012.1 |
| 20260502184509 | 10 | 336 | 1.6 | 14.5 | 0.00 | 0.28 | 0.03 | 45 | 1012.7 |
| 20260502183048 | 10 | 36 | 3.2 | 14.5 | 0.00 | 0.28 | 0.03 | 44 | 1012.1 |
| 20260502183008 | 10 | 36 | 4.8 | 14.5 | 0.00 | 0.28 | 0.03 | 44 | 1012.7 |
| 20260502181542 | 11 | 257 | 6.4 | 16.1 | 0.00 | 0.28 | 0.03 | 43 | 1012.0 |
| 20260502181511 | 10 | 255 | 6.4 | 16.1 | 0.00 | 0.28 | 0.03 | 48 | 1012.5 |
| 20260502163051 | 11 | 18 | 3.2 | 6.4 | 0.00 | 0.28 | 0.03 | 59 | 1012.1 |
| 20260502163013 | 10 | 288 | 3.2 | 6.4 | 0.00 | 0.28 | 0.03 | 59 | 1012.5 |
| 20260502161545 | 10 | 30 | 3.2 | 8.0 | 0.00 | 0.28 | 0.03 | 57 | 1012.2 |
| 20260502161510 | 10 | 31 | 3.2 | 8.0 | 0.00 | 0.28 | 0.03 | 57 | 1012.7 |
| 20260502151539 | 10 | 214 | 6.4 | 14.5 | 0.00 | 0.28 | 0.03 | 55 | 1012.3 |
| 20260502151511 | 10 | 273 | 6.4 | 14.5 | 0.00 | 0.28 | 0.03 | 55 | 1012.8 |
| 20260502150123 | 8 | 238 | 3.2 | 16.1 | 0.00 | 0.28 | 0.03 | 63 | 1012.5 |
| 20260502123049 | 6 | 9 | 3.2 | 14.5 | 0.00 | 0.28 | 0.03 | 77 | 1012.9 |
| 20260502123012 | 6 | 259 | 3.2 | 14.5 | 0.00 | 0.28 | 0.03 | 77 | 1013.3 |
| 20260502121559 | 6 | 286 | 1.6 | 4.8 | 0.00 | 0.28 | 0.03 | 80 | 1012.8 |
| 20260502121528 | 6 | 244 | 1.6 | 4.8 | 0.00 | 0.28 | 0.03 | 80 | 1013.2 |
| 20260502120110 | 5 | 225 | 0.0 | 4.8 | 0.00 | 0.28 | 0.03 | 80 | 1012.9 |
| 20260502114556 | 5 | 230 | 1.6 | 4.8 | 0.00 | 0.28 | 0.03 | 81 | 1012.8 |
| 20260502114527 | 5 | 229 | 1.6 | 4.8 | 0.00 | 0.28 | 0.03 | 81 | 1013.3 |
| 20260502113109 | 5 | 23 | 0.0 | 4.8 | 0.00 | 0.28 | 0.03 | 82 | 1012.9 |
| 20260502113026 | 5 | 22 | 0.0 | 4.8 | 0.00 | 0.28 | 0.03 | 82 | 1013.4 |
| 20260502111552 | 5 | 9 | 1.6 | 6.4 | 0.00 | 0.28 | 0.03 | 83 | 1012.7 |
| 20260502111532 | 5 | 335 | 1.6 | 6.4 | 0.00 | 0.28 | 0.03 | 83 | 1013.3 |
| 20260502110050 | 5 | 32 | 1.6 | 6.4 | 0.00 | 0.28 | 0.03 | 84 | 1012.5 |
| 20260502110037 | 5 | 37 | 1.6 | 6.4 | 0.00 | 0.28 | 0.03 | 84 | 1012.9 |
| 20260502104545 | 5 | 21 | 0.0 | 3.2 | 0.00 | 0.28 | 0.03 | 86 | 1012.4 |
| 20260502104525 | 5 | 19 | 0.0 | 3.2 | 0.00 | 0.28 | 0.03 | 86 | 1012.9 |
| 20260502103106 | 5 | 360 | 1.6 | 8.0 | 0.00 | 0.28 | 0.03 | 87 | 1012.2 |
| 20260502103028 | 5 | 42 | 1.6 | 8.0 | 0.00 | 0.28 | 0.03 | 87 | 1012.7 |
| 20260502101553 | 5 | 296 | 0.0 | 3.2 | 0.00 | 0.28 | 0.03 | 89 | 1012.1 |
| 20260502101527 | 5 | 231 | 0.0 | 3.2 | 0.00 | 0.28 | 0.03 | 89 | 1012.6 |
| 20260502091508 | 5 | 52 | 0.0 | 4.8 | 0.00 | 0.28 | 0.03 | 89 | 1011.8 |
| 20260502071511 | 6 | 265 | 0.0 | 3.2 | 0.00 | 0.28 | 0.03 | 94 | 1011.4 |
| 20260502070042 | 6 | 265 | 0.0 | 3.2 | 0.00 | 0.28 | 0.03 | 93 | 1011.1 |
| 20260502070012 | 6 | 265 | 0.0 | 3.2 | 0.00 | 0.28 | 0.03 | 93 | 1011.5 |
| 20260502064539 | 6 | 0 | 0.0 | 3.2 | 0.00 | 0.28 | 0.03 | 93 | 1011.1 |
| 20260502064511 | 6 | 265 | 0.0 | 3.2 | 0.00 | 0.28 | 0.03 | 93 | 1011.5 |
| 20260502063048 | 6 | 265 | 0.0 | 3.2 | 0.00 | 0.28 | 0.03 | 93 | 1011.3 |
| 20260502063011 | 6 | 265 | 0.0 | 3.2 | 0.00 | 0.28 | 0.03 | 93 | 1011.6 |
| 20260502061546 | 6 | 0 | 0.0 | 4.8 | 0.00 | 0.28 | 0.03 | 94 | 1011.3 |
| 20260502061511 | 6 | 265 | 0.0 | 4.8 | 0.00 | 0.28 | 0.03 | 94 | 1011.7 |
| 20260502060044 | 6 | 123 | 0.0 | 3.2 | 0.00 | 0.28 | 0.03 | 94 | 1011.2 |
| 20260502060010 | 6 | 123 | 0.0 | 3.2 | 0.00 | 0.28 | 0.03 | 94 | 1011.6 |
| 20260502054552 | 6 | 159 | 0.0 | 3.2 | 0.00 | 0.28 | 0.03 | 93 | 1011.3 |
| 20260502054520 | 6 | 159 | 0.0 | 3.2 | 0.00 | 0.28 | 0.03 | 93 | 1011.6 |
| 20260502053046 | 6 | 0 | 0.0 | 3.2 | 0.00 | 0.28 | 0.03 | 93 | 1011.4 |
| 20260502053011 | 6 | 163 | 0.0 | 1.6 | 0.00 | 0.28 | 0.03 | 93 | 1011.9 |
| 20260502051545 | 6 | 0 | 0.0 | 3.2 | 0.00 | 0.28 | 0.03 | 92 | 1011.5 |
| 20260502051520 | 6 | 163 | 0.0 | 3.2 | 0.03 | 0.28 | 0.03 | 92 | 1011.9 |